This is the latest recevied weather packets stored in our database for station/object K2BIG. If no packets are shown the sender has not sent any weather packets the latest 10 day(s).
| Time | Temp. | Humidity | Pressure | Rain* | Wind** | Luminosity | Snow |
|---|---|---|---|---|---|---|---|
| 1778003716 | 28.33° C | 40% | 1007.6 hPa | 0 mm | - | - | - |
| 1778003417 | 28.33° C | 41% | 1007.5 hPa | 0 mm | - | - | - |
| 1778003116 | 28.33° C | 45% | 1007.6 hPa | 0 mm | - | - | - |
| 1778002816 | 28.33° C | 44% | 1007.7 hPa | 0 mm | - | - | - |
| 1778002516 | 28.33° C | 43% | 1007.9 hPa | 0 mm | - | - | - |
| 1778002216 | 28.33° C | 45% | 1007.7 hPa | 0 mm | - | - | - |
| 1778001916 | 27.78° C | 46% | 1007.8 hPa | 0 mm | - | - | - |
| 1778001616 | 27.78° C | 44% | 1007.8 hPa | 0 mm | - | - | - |
| 1778001316 | 28.33° C | 42% | 1007.8 hPa | 0 mm | - | - | - |
| 1778001016 | 27.78° C | 48% | 1007.9 hPa | 0 mm | - | - | - |
| 1778000716 | 27.78° C | 45% | 1007.9 hPa | 0 mm | - | - | - |
| 1778000416 | 27.22° C | 47% | 1008 hPa | 0 mm | - | - | - |
| 1778000116 | 27.22° C | 46% | 1008 hPa | 0 mm | - | - | - |
| 1777999817 | 27.22° C | 46% | 1008.2 hPa | 0 mm | - | - | - |
| 1777999516 | 27.22° C | 46% | 1008.3 hPa | 0 mm | - | - | - |
| 1777999216 | 27.22° C | 46% | 1008.4 hPa | 0 mm | - | - | - |
| 1777998916 | 27.22° C | 47% | 1008.5 hPa | 0 mm | - | - | - |
| 1777998616 | 26.67° C | 48% | 1008.5 hPa | 0 mm | - | - | - |
| 1777998316 | 26.67° C | 47% | 1008.6 hPa | 0 mm | - | - | - |
| 1777998016 | 27.22° C | 46% | 1008.6 hPa | 0 mm | - | - | - |
| 1777997716 | 26.67° C | 49% | 1008.7 hPa | 0 mm | - | - | - |
| 1777997416 | 26.67° C | 48% | 1008.9 hPa | 0 mm | - | - | - |
| 1777997116 | 26.67° C | 52% | 1009 hPa | 0 mm | - | - | - |
| 1777996816 | 26.67° C | 50% | 1009 hPa | 0 mm | - | - | - |
| 1777996516 | 26.67° C | 49% | 1009 hPa | 0 mm | - | - | - |
* Rain latest hour (hover to see other rain measurements)
** Current wind speed in m/s (hover to see current wind gust speed)